Location: Kernascl�den
(48.0062°N, 3.3198°W)
Time: 21:54:30
(UTC+00:00)

Cosmos 2082 Rocket - Pass Details

Date: 21 January 2021
Orbit: 832 x 854 km, 71.0° (Epoch: 03 March)

Event Time Altitude Azimuth Distance (km) Brightness Sun altitude
Rises 19:17:09 0° 336° (NNW) 3,437 5.6 -23.2°
Reaches altitude 10° 19:19:54 10° 346° (NNW) 2,497 4.7 -23.6°
Enters shadow 19:23:23 27° 19° (NNE) 1,586 3.4 -24.2°
